This demonstration page uses our WeatherBlox Daily Observations layout. Learn more.

Left ArrowRight Arrow

Hourly Observations for June 27, 2017

Temp ( °F °C ) Dew Point ( °F °C ) Humidity (%) Winds ( mph kmh ) Pressure ( in mb ) Visibility ( mi km ) Precip ( " mm )
12:07 am 00:07 Mostly Cloudy 55 13 52 11 88 88 SW 6 9 30.09 1019 10 16 N/A
12:27 am 00:27 Partly Cloudy 55 13 50 10 82 82 WSW 6 9 30.09 1019 10 16 N/A
12:47 am 00:47 Clear 54 12 50 10 88 88 W 5 7 30.12 1020 10 16 N/A
1:07 am 01:07 Clear 55 13 50 10 82 82 W 8 13 30.09 1019 10 16 N/A
1:27 am 01:27 Clear 54 12 50 10 88 88 W 7 11 30.12 1020 10 16 N/A
1:47 am 01:47 Clear 54 12 50 10 88 88 W 7 11 30.15 1021 10 16 N/A
2:07 am 02:07 Clear 54 12 50 10 88 88 W 8 13 30.15 1021 10 16 N/A
2:27 am 02:27 Clear 54 12 50 10 88 88 W 7 11 30.15 1021 10 16 N/A
2:47 am 02:47 Clear 52 11 50 10 94 94 W 6 9 30.12 1020 10 16 N/A
3:07 am 03:07 Clear 52 11 50 10 94 94 W 6 9 30.12 1020 10 16 N/A
3:27 am 03:27 Clear 52 11 50 10 94 94 W 5 7 30.12 1020 10 16 N/A
3:47 am 03:47 Clear 50 10 48 9 94 94 W 5 7 30.12 1020 10 16 N/A
4:07 am 04:07 Clear 50 10 48 9 94 94 W 5 7 30.12 1020 10 16 N/A
4:27 am 04:27 Clear 50 10 48 9 94 94 W 5 7 30.15 1021 10 16 N/A
4:47 am 04:47 Clear 50 10 48 9 94 94 W 5 7 30.12 1020 10 16 N/A
5:07 am 05:07 Clear 50 10 48 9 94 94 W 5 7 30.15 1021 10 16 N/A
5:27 am 05:27 Clear 48 9 48 9 100 100 W 3 6 30.15 1021 10 16 N/A
5:47 am 05:47 Clear 50 10 48 9 94 94 W 3 6 30.15 1021 10 16 N/A
6:08 am 06:08 Clear 48 9 48 9 100 100 W 3 6 30.15 1021 10 16 N/A
6:27 am 06:27 Sunny 50 10 48 9 94 94 WSW 3 6 30.15 1021 10 16 N/A
6:47 am 06:47 Sunny 50 10 48 9 94 94 WSW 5 7 30.15 1021 10 16 N/A
7:07 am 07:07 Sunny 50 10 48 9 94 94 WSW 3 6 30.18 1022 10 16 N/A
7:27 am 07:27 Sunny 52 11 50 10 94 94 WSW 3 6 30.18 1022 10 16 N/A
7:47 am 07:47 Sunny 54 12 52 11 94 94 W 5 7 30.18 1022 10 16 N/A
8:07 am 08:07 Sunny 55 13 52 11 88 88 W 7 11 30.15 1021 10 16 N/A
8:27 am 08:27 Sunny 57 14 52 11 82 82 W 5 7 30.15 1021 10 16 N/A
8:48 am 08:48 Sunny 59 15 52 11 77 77 WNW 7 11 30.15 1021 10 16 N/A
9:07 am 09:07 Sunny 61 16 52 11 72 72 NW 7 11 30.18 1022 10 16 N/A
9:27 am 09:27 Sunny 61 16 50 10 68 68 N 7 11 30.18 1022 10 16 N/A
9:48 am 09:48 Sunny 63 17 50 10 64 64 NNW 8 13 30.18 1022 10 16 N/A
10:07 am 10:07 Sunny 63 17 50 10 64 64 NNW 7 11 30.18 1022 10 16 N/A
10:27 am 10:27 Sunny 63 17 50 10 64 64 N 8 13 30.18 1022 10 16 N/A
10:47 am 10:47 Sunny 64 18 50 10 60 60 NNW 9 15 30.18 1022 10 16 N/A
11:07 am 11:07 Sunny 64 18 50 10 60 60 N 7 11 30.18 1022 10 16 N/A
11:27 am 11:27 Sunny 64 18 50 10 60 60 NW 7 11 30.18 1022 10 16 N/A
11:47 am 11:47 Sunny 66 19 48 9 52 52 N 7 11 30.18 1022 10 16 N/A
12:07 pm 12:07 Sunny 68 20 48 9 49 49 N 10 17 30.18 1022 10 16 N/A
12:27 pm 12:27 Sunny 68 20 48 9 49 49 NNW 6 9 30.18 1022 10 16 N/A
12:47 pm 12:47 Partly Cloudy 68 20 48 9 49 49 NNW 7 11 30.18 1022 10 16 N/A
1:07 pm 13:07 Partly Cloudy 68 20 48 9 49 49 N 6 9 30.18 1022 10 16 N/A
1:27 pm 13:27 Sunny 68 20 46 8 46 46 NW 6 9 30.15 1021 10 16 N/A
1:47 pm 13:47 Sunny 70 21 46 8 43 43 N N/A 30.15 1021 10 16 N/A
2:08 pm 14:08 Partly Cloudy 68 20 46 8 46 46 N 7 11 30.15 1021 10 16 N/A
2:27 pm 14:27 Partly Cloudy 70 21 46 8 43 43 WSW 3 6 30.15 1021 10 16 N/A
2:47 pm 14:47 Partly Cloudy 70 21 46 8 43 43 N 5 7 30.15 1021 10 16 N/A
3:08 pm 15:08 Partly Cloudy 70 21 46 8 43 43 N 7 11 30.15 1021 10 16 N/A
3:27 pm 15:27 Mostly Cloudy 72 22 46 8 41 41 N 5 7 30.15 1021 10 16 N/A
3:47 pm 15:47 Partly Cloudy 72 22 48 9 44 44 NNW 7 11 30.15 1021 10 16 N/A
4:07 pm 16:07 Mostly Cloudy 73 23 48 9 41 41 N 7 11 30.09 1019 10 16 N/A
4:27 pm 16:27 Mostly Cloudy 72 22 45 7 38 38 NNW 6 9 30.09 1019 10 16 N/A
4:47 pm 16:47 Mostly Cloudy 72 22 46 8 41 41 N 6 9 30.09 1019 10 16 N/A
5:07 pm 17:07 Partly Cloudy 72 22 45 7 38 38 NW 5 7 30.09 1019 10 16 N/A
5:27 pm 17:27 Sunny 70 21 45 7 40 40 N N/A 30.12 1020 10 16 N/A
5:47 pm 17:47 Partly Cloudy 72 22 46 8 41 41 N N/A 30.09 1019 10 16 N/A
6:07 pm 18:07 Partly Cloudy 72 22 46 8 41 41 NNW 8 13 30.09 1019 10 16 N/A
6:27 pm 18:27 Sunny 72 22 45 7 38 38 N N/A 30.09 1019 10 16 N/A
6:47 pm 18:47 Sunny 73 23 45 7 36 36 N 3 6 30.06 1018 10 16 N/A
7:07 pm 19:07 Sunny 72 22 46 8 41 41 N 6 9 30.06 1018 10 16 N/A
7:27 pm 19:27 Sunny 72 22 45 7 38 38 N N/A 30.06 1018 10 16 N/A
7:47 pm 19:47 Sunny 72 22 45 7 38 38 N N/A 30.06 1018 10 16 N/A
8:07 pm 20:07 Sunny 72 22 46 8 41 41 N 3 6 30.06 1018 10 16 N/A
8:27 pm 20:27 Sunny 70 21 48 9 46 46 ENE 5 7 30.09 1019 10 16 N/A
8:47 pm 20:47 Sunny 68 20 46 8 46 46 ENE 3 6 30.09 1019 10 16 N/A
9:07 pm 21:07 Sunny 66 19 48 9 52 52 ENE 3 6 30.09 1019 10 16 N/A
9:28 pm 21:28 Clear 64 18 52 11 64 64 N N/A 30.09 1019 10 16 N/A
9:47 pm 21:47 Clear 63 17 52 11 68 68 N N/A 30.09 1019 10 16 N/A
10:07 pm 22:07 Clear 61 16 52 11 72 72 E 6 9 30.09 1019 10 16 N/A
10:27 pm 22:27 Clear 61 16 52 11 72 72 N N/A 30.12 1020 10 16 N/A
10:47 pm 22:47 Clear 61 16 52 11 72 72 SE 3 6 30.12 1020 10 16 N/A
11:07 pm 23:07 Clear 59 15 52 11 77 77 N N/A 30.12 1020 10 16 N/A
11:27 pm 23:27 Clear 59 15 52 11 77 77 SSE 5 7 30.12 1020 10 16 N/A
11:47 pm 23:47 Clear 59 15 52 11 77 77 SSE 3 6 30.12 1020 10 16 N/A

Powered by AerisWeather